KI7LNA Weather Reports


time (UTC)temp
C
wind
direction
speed
KPH
gust
KPH
rain 1hr
cm
rain 24hr
cm
rain mn
cm
humidity
%
barometer
mb
20260504100403 6 117 3.2 4.8 0.00 0.00 0.00 92 927.2
20260504081902 7 119 3.2 4.8 0.00 0.00 0.00 88 926.9
20260504081403 7 29 0.0 0.0 0.00 0.00 0.00 86 927.2
20260504080901 7 160 3.2 4.8 0.00 0.00 0.00 86 926.9
20260504080402 7 45 4.8 6.4 0.00 0.00 0.00 85 927.2
20260504070402 8 66 0.0 3.2 0.00 0.00 0.00 80 926.9
20260504050402 11 83 1.6 3.2 0.00 0.00 0.00 66 926.5
20260504045902 11 47 3.2 4.8 0.00 0.00 0.00 65 926.9
20260504045401 12 49 3.2 3.2 0.00 0.00 0.00 67 926.9
20260504044902 12 127 3.2 3.2 0.00 0.00 0.00 67 926.9
20260504044402 12 150 4.8 6.4 0.00 0.00 0.00 63 926.9
20260504043902 12 67 4.8 6.4 0.00 0.00 0.00 62 926.9
20260504043401 12 61 3.2 3.2 0.00 0.00 0.00 63 926.9
20260504042903 13 101 3.2 3.2 0.00 0.00 0.00 62 926.9
20260504042402 13 49 0.0 3.2 0.00 0.00 0.00 62 926.9
20260504041902 13 224 0.0 0.0 0.00 0.00 0.00 58 926.9
20260504041401 14 208 0.0 0.0 0.00 0.00 0.00 56 926.9
20260504040901 14 208 0.0 0.0 0.00 0.00 0.00 56 926.9
20260504040402 14 60 3.2 4.8 0.00 0.00 0.00 56 926.9
20260504035902 14 49 4.8 4.8 0.00 0.00 0.00 57 926.5
20260504035408 15 32 4.8 4.8 0.00 0.00 0.00 56 926.5
20260504034903 15 41 6.4 6.4 0.00 0.00 0.00 57 926.5
20260504034402 15 66 3.2 3.2 0.00 0.00 0.00 56 926.5
20260504033905 16 153 4.8 4.8 0.00 0.00 0.00 55 926.5
20260504033401 16 89 3.2 3.2 0.00 0.00 0.00 49 926.5
20260504032901 21 297 0.0 0.0 0.00 0.00 0.00 38 926.5
20260504032402 21 297 0.0 0.0 0.00 0.00 0.00 38 926.5
20260504031904 21 297 0.0 0.0 0.00 0.00 0.00 38 926.5
20260504031403 21 297 0.0 0.0 0.00 0.00 0.00 38 926.5
20260504030901 21 297 0.0 0.0 0.00 0.00 0.00 38 926.2
20260504030401 21 297 0.0 0.0 0.00 0.00 0.00 38 926.2
20260504025902 21 297 0.0 0.0 0.00 0.00 0.00 38 926.2
20260504025401 21 297 0.0 0.0 0.00 0.00 0.00 38 926.2
20260504024902 21 86 1.6 1.6 0.00 0.00 0.00 36 926.2
20260504024401 21 139 0.0 1.6 0.00 0.00 0.00 33 925.8
20260504023901 21 49 0.0 4.8 0.00 0.00 0.00 34 926.2
20260504023403 22 43 3.2 6.4 0.00 0.00 0.00 34 926.2
20260504022902 23 287 0.0 1.6 0.00 0.00 0.00 27 926.2
20260504022402 23 147 0.0 1.6 0.00 0.00 0.00 29 926.2
20260504021902 23 135 0.0 3.2 0.00 0.00 0.00 26 926.2
20260504021402 24 202 0.0 1.6 0.00 0.00 0.00 27 926.2
20260504020902 24 164 1.6 1.6 0.00 0.00 0.00 26 925.8
20260504020401 25 271 0.0 3.2 0.00 0.00 0.00 23 926.2
20260504015902 24 11 0.0 1.6 0.00 0.00 0.00 24 926.2
20260504015402 25 354 3.2 4.8 0.00 0.00 0.00 25 926.2
20260504014902 25 323 4.8 8.0 0.00 0.00 0.00 22 926.2
20260504014401 25 357 4.8 8.0 0.00 0.00 0.00 23 926.2
20260504013902 25 346 6.4 6.4 0.00 0.00 0.00 24 926.2
20260504013401 25 299 6.4 9.7 0.00 0.00 0.00 22 926.5
20260504012902 25 287 9.7 11.3 0.00 0.00 0.00 22 926.5
20260504012402 25 0 6.4 9.7 0.00 0.00 0.00 23 926.5
20260504011901 25 308 6.4 11.3 0.00 0.00 0.00 22 926.5
20260504011401 25 307 6.4 11.3 0.00 0.00 0.00 22 926.5
20260504010901 25 304 11.3 20.9 0.00 0.00 0.00 23 926.5
20260504010402 25 260 6.4 8.0 0.00 0.00 0.00 20 926.5
20260504005902 25 258 8.0 11.3 0.00 0.00 0.00 20 926.9
20260504005403 25 305 4.8 9.7 0.00 0.00 0.00 21 926.9
20260504004903 24 312 8.0 14.5 0.00 0.00 0.00 19 926.5
20260504004402 25 306 16.1 17.7 0.00 0.00 0.00 20 926.9
20260504003902 24 311 12.9 17.7 0.00 0.00 0.00 20 926.9
20260504003401 24 354 9.7 20.9 0.00 0.00 0.00 20 926.9
20260504002902 24 298 19.3 19.3 0.00 0.00 0.00 21 926.9
20260504002401 25 272 14.5 19.3 0.00 0.00 0.00 21 927.2
20260504001902 24 263 20.9 22.5 0.00 0.00 0.00 20 927.2
20260504001401 24 332 11.3 20.9 0.00 0.00 0.00 22 927.2
20260504000902 24 293 14.5 25.7 0.00 0.00 0.00 19 926.9
20260504000401 24 289 16.1 20.9 0.00 0.00 0.00 21 927.2
20260503235902 24 314 14.5 20.9 0.00 0.00 0.00 20 926.9
20260503235401 24 319 12.9 19.3 0.00 0.00 0.00 19 926.9
20260503234901 24 311 12.9 17.7 0.00 0.00 0.00 18 926.9
20260503234401 25 323 11.3 17.7 0.00 0.00 0.00 16 926.9
20260503233901 24 288 8.0 17.7 0.00 0.00 0.00 16 927.2
20260503233402 24 300 14.5 24.1 0.00 0.00 0.00 16 927.2
20260503232901 24 347 11.3 25.7 0.00 0.00 0.00 18 927.2
20260503232402 23 358 16.1 20.9 0.00 0.00 0.00 18 927.2
20260503231902 23 349 8.0 25.7 0.00 0.00 0.00 19 927.2
20260503231401 23 330 22.5 30.6 0.00 0.00 0.00 17 927.2
20260503230901 23 297 16.1 25.7 0.00 0.00 0.00 18 927.2
20260503230401 24 310 16.1 24.1 0.00 0.00 0.00 17 927.5
20260503225902 24 294 20.9 22.5 0.00 0.00 0.00 17 927.5
20260503225402 24 309 6.4 22.5 0.00 0.00 0.00 20 927.5
20260503224902 24 277 16.1 20.9 0.00 0.00 0.00 18 927.5
20260503224402 24 328 19.3 24.1 0.00 0.00 0.00 16 927.9
20260503223902 24 312 11.3 25.7 0.00 0.00 0.00 17 927.5
20260503223402 24 343 14.5 20.9 0.00 0.00 0.00 17 927.9
20260503222901 24 328 9.7 20.9 0.00 0.00 0.00 17 927.5
20260503222402 24 318 14.5 16.1 0.00 0.00 0.00 17 927.5
20260503221902 24 346 14.5 20.9 0.00 0.00 0.00 17 928.2
20260503221401 24 14 11.3 16.1 0.00 0.00 0.00 21 927.9
20260503220902 23 322 12.9 17.7 0.00 0.00 0.00 19 928.2
20260503220402 24 306 12.9 19.3 0.00 0.00 0.00 19 927.9
20260503215904 23 351 12.9 20.9 0.00 0.00 0.00 20 928.2
20260503215402 23 295 8.0 19.3 0.00 0.00 0.00 19 928.2
20260503214902 23 324 16.1 20.9 0.00 0.00 0.00 21 928.5
20260503214401 23 345 12.9 17.7 0.00 0.00 0.00 23 928.5
20260503213901 23 320 8.0 14.5 0.00 0.00 0.00 20 928.5
20260503213402 23 321 8.0 14.5 0.00 0.00 0.00 21 928.9
20260503212903 23 310 11.3 12.9 0.00 0.00 0.00 24 928.9
20260503212402 23 329 6.4 12.9 0.00 0.00 0.00 24 928.9
20260503211903 23 316 8.0 17.7 0.00 0.00 0.00 23 928.9
20260503211402 23 308 8.0 14.5 0.00 0.00 0.00 24 928.9
20260503210901 22 0 8.0 9.7 0.00 0.00 0.00 23 929.2
20260503210401 23 335 8.0 20.9 0.00 0.00 0.00 23 929.2
20260503205901 23 359 8.0 17.7 0.00 0.00 0.00 24 929.2
20260503205402 22 133 3.2 12.9 0.00 0.00 0.00 27 929.6
20260503204901 23 186 11.3 12.9 0.00 0.00 0.00 25 929.6
20260503204401 23 276 12.9 16.1 0.00 0.00 0.00 23 929.6
20260503203902 22 91 3.2 17.7 0.00 0.00 0.00 24 929.6
20260503203402 23 298 6.4 11.3 0.00 0.00 0.00 28 929.6
20260503202902 23 6 4.8 9.7 0.00 0.00 0.00 30 929.6
20260503202401 23 218 4.8 8.0 0.00 0.00 0.00 29 929.9
20260503201902 23 208 4.8 16.1 0.00 0.00 0.00 29 929.9
20260503201401 22 115 3.2 4.8 0.00 0.00 0.00 34 929.6
20260503200902 22 130 3.2 9.7 0.00 0.00 0.00 32 929.9
20260503200401 22 157 6.4 8.0 0.00 0.00 0.00 31 929.9
20260503195901 22 219 6.4 11.3 0.00 0.00 0.00 32 929.9
20260503195401 22 345 14.5 14.5 0.00 0.00 0.00 29 929.9
20260503194902 22 152 4.8 12.9 0.00 0.00 0.00 32 930.2
20260503194401 22 172 11.3 12.9 0.00 0.00 0.00 31 930.2
20260503193903 21 210 4.8 9.7 0.00 0.00 0.00 33 930.2
20260503193401 21 329 3.2 8.0 0.00 0.00 0.00 36 930.2
20260503192901 21 200 4.8 6.4 0.00 0.00 0.00 33 930.6
20260503192402 21 188 3.2 12.9 0.00 0.00 0.00 30 930.6
20260503191902 21 318 9.7 12.9 0.00 0.00 0.00 32 930.2
20260503191402 21 320 3.2 12.9 0.00 0.00 0.00 34 930.6
20260503190902 21 0 3.2 16.1 0.00 0.00 0.00 33 930.6
20260503190402 20 110 4.8 12.9 0.00 0.00 0.00 37 930.9
20260503185902 21 333 4.8 20.9 0.00 0.00 0.00 32 930.6
20260503185403 21 262 8.0 9.7 0.00 0.00 0.00 40 930.6
20260503184902 21 284 8.0 14.5 0.00 0.00 0.00 35 930.9
20260503184402 21 308 8.0 12.9 0.00 0.00 0.00 39 930.6
20260503183901 21 216 3.2 12.9 0.00 0.00 0.00 39 930.6
20260503183401 21 297 9.7 11.3 0.00 0.00 0.00 38 930.6
20260503182902 20 264 3.2 9.7 0.00 0.00 0.00 36 930.9
20260503182402 20 284 8.0 9.7 0.00 0.00 0.00 41 931.3
20260503181901 20 263 9.7 14.5 0.00 0.00 0.00 39 930.9
20260503181403 20 305 8.0 12.9 0.00 0.00 0.00 38 931.3
20260503180902 19 292 6.4 9.7 0.00 0.00 0.00 37 931.3
20260503180401 18 316 8.0 9.7 0.00 0.00 0.00 39 931.3
20260503175902 18 12 9.7 9.7 0.00 0.00 0.00 43 931.3
20260503175402 18 68 1.6 6.4 0.00 0.00 0.00 40 931.3
20260503174902 18 280 3.2 6.4 0.00 0.00 0.00 40 931.3
20260503174401 18 315 3.2 8.0 0.00 0.00 0.00 41 931.3
20260503173901 18 55 1.6 9.7 0.00 0.00 0.00 42 931.3
20260503173401 17 358 1.6 8.0 0.00 0.00 0.00 43 931.6
20260503172905 18 243 1.6 9.7 0.00 0.00 0.00 40 931.6
20260503172403 17 136 3.2 8.0 0.00 0.00 0.00 44 931.6
20260503171902 17 138 4.8 4.8 0.00 0.00 0.00 43 931.6
20260503171402 16 333 3.2 3.2 0.00 0.00 0.00 49 931.6
20260503170901 16 340 3.2 3.2 0.00 0.00 0.00 45 931.9
20260503170403 17 32 6.4 8.0 0.00 0.00 0.00 44 931.9
20260503150903 10 179 3.2 4.8 0.00 0.00 0.00 72 933.0
20260503150403 10 153 6.4 6.4 0.00 0.00 0.00 73 933.0
20260503131402 3 317 3.2 4.8 0.00 0.00 0.00 98 933.0
20260503130902 3 138 1.6 3.2 0.00 0.00 0.00 98 933.3
20260503130403 3 122 4.8 6.4 0.00 0.00 0.00 99 933.0
20260503110402 4 81 3.2 3.2 0.00 0.00 0.00 97 933.0